Zurück zum Katalog

STARLINK-3256

AktivKommunikationVLEO
NORAD 50202·PAYLOAD·🇺🇸 United States

Gestartet Dec 18, 2021 von Vandenberg Space Force Base

Loading…

Nächste Überflüge (nächste 24 Stunden)

TLE

AktuellSource: CelesTrak SupGP

Epoche: Sep 14, 2026, 20:00 UTC

1 50202C 21125AY  26257.83381944 -.00019476  00000+0 -62635-3 0  2572
2 50202  53.1580  99.4544 0001321  84.1709 322.3645 15.31709281    17

Verfolge STARLINK-3256 in Echtzeit mit AllMySat

Download on the App Store